Theta_e
321 324 332 336 336 339 343 344 342 342 344 343 343 344 343 344 345 348 345 338 335 331 329 327 330 331 331 330 325 322 322 321 323 329 337 334 331 330 329 328 328 328 328 328 328 329 329 329 329
321 326 330 332 331 335 336 339 343 341 343 345 344 344 344 346 345 345 346 337 339 330 326 329 331 332 333 329 323 321 321 324 330 332 330 330 329 329 327 326 324 323 322 321 321 323 324 326 328
321 323 328 332 334 334 333 337 339 343 344 344 344 344 344 345 345 346 344 340 337 332 326 330 332 333 332 326 321 321 321 329 331 330 330 329 327 323 318 317 316 317 317 317 316 316 316 316 317
321 323 324 330 330 330 331 332 338 346 346 345 347 346 345 344 345 345 339 339 339 329 327 330 332 333 330 323 321 321 329 330 330 330 328 324 319 316 318 318 318 318 317 316 316 315 315 315 315
323 324 329 329 328 328 327 333 341 347 346 345 345 346 347 345 345 344 343 336 332 328 328 330 332 333 326 322 321 329 330 331 330 326 321 317 317 318 319 319 319 318 317 316 315 314 313 313 313
323 323 328 328 328 327 327 330 338 342 346 346 347 345 347 344 345 344 344 336 331 329 329 330 333 330 323 322 327 331 331 331 327 321 318 317 318 319 319 318 318 318 317 315 314 313 313 312 312
324 328 328 328 329 328 334 336 340 347 348 347 345 346 346 344 345 342 340 334 331 329 329 332 334 326 322 324 331 331 332 331 327 322 318 317 318 319 318 318 317 317 315 313 312 314 315 315 315
321 327 328 328 328 332 338 340 343 346 347 346 344 345 346 343 344 341 336 333 330 330 331 334 329 324 323 330 331 331 333 331 328 323 319 319 319 319 318 317 317 315 312 312 314 315 315 315 314
322 326 328 327 326 330 332 337 344 343 344 345 344 344 342 340 343 337 335 334 330 330 333 333 326 323 324 331 331 332 333 333 329 323 320 319 319 318 317 317 316 313 311 313 314 314 313 312 313
321 323 325 323 324 325 323 331 330 339 339 341 342 344 343 340 342 337 337 333 329 331 333 329 324 322 327 331 331 332 334 332 329 327 321 319 318 317 316 316 315 312 312 315 316 315 313 315 320
318 322 322 322 322 322 321 321 325 333 333 338 340 346 343 341 342 338 334 337 331 330 330 326 323 323 328 331 331 333 334 333 332 331 323 318 317 316 316 316 313 311 313 316 316 315 314 312 314
319 319 319 320 318 319 320 322 327 332 331 337 338 341 344 342 342 341 333 339 336 330 327 325 323 323 328 331 332 334 333 334 333 333 324 318 317 316 316 314 311 310 313 317 316 315 314 313 312
318 318 316 317 316 316 316 318 324 330 333 336 339 341 344 344 341 339 336 339 338 327 325 323 322 324 329 330 332 333 334 335 335 334 327 319 317 316 315 312 310 309 312 316 317 317 316 314 313
316 316 317 316 316 316 317 322 330 329 331 340 340 343 345 342 340 340 338 338 339 330 323 322 323 326 329 331 333 333 335 336 335 334 327 320 317 316 314 311 309 309 310 314 317 317 316 315 317
315 318 319 318 318 319 317 329 329 328 331 340 343 345 346 343 343 337 335 337 338 334 324 323 324 327 330 333 335 335 336 336 336 335 328 320 317 316 313 310 308 307 309 312 316 317 317 315 317
317 318 321 320 319 316 322 322 319 330 337 340 341 343 344 344 345 343 339 337 338 340 332 325 326 327 332 335 336 336 337 336 335 331 328 320 317 315 311 309 307 307 307 309 314 318 317 316 317
318 321 320 321 323 320 319 322 329 336 336 341 343 342 342 342 343 343 341 337 338 339 340 331 327 328 332 336 336 337 336 334 332 328 325 320 318 314 311 309 306 305 305 306 312 316 317 317 317
320 320 320 320 319 330 330 334 334 338 337 337 338 340 341 340 339 339 339 339 339 340 340 340 331 331 332 336 336 336 335 330 329 325 322 319 316 312 310 308 306 304 303 306 311 312 314 310 317
317 319 320 319 318 333 334 335 335 338 339 338 338 338 339 339 337 337 337 338 339 340 340 340 340 333 335 335 337 336 335 331 329 324 321 318 315 311 309 307 305 304 303 306 308 310 311 308 310
318 320 322 323 329 332 334 333 333 334 337 337 338 337 337 338 337 337 337 337 338 336 338 339 340 337 337 338 337 336 335 334 331 325 320 318 314 311 309 306 305 304 303 305 308 309 311 308 307
321 322 322 324 324 323 326 333 332 331 331 333 336 339 340 340 336 339 336 336 336 336 337 338 339 339 334 329 331 336 332 332 331 329 321 318 315 311 307 306 305 304 304 304 306 307 306 305 306
324 320 321 323 324 324 327 332 332 332 332 332 336 340 337 339 338 340 339 339 338 338 338 339 339 338 329 329 332 331 329 333 331 332 322 317 315 310 307 305 305 305 304 303 304 305 305 305 308
324 319 322 322 324 325 327 330 333 331 333 333 334 340 337 336 339 336 337 337 337 339 338 338 339 339 334 329 333 334 332 332 331 331 323 318 316 310 308 306 307 305 304 303 303 304 305 305 306
320 323 324 324 325 328 329 333 332 332 333 333 333 338 338 337 339 337 338 338 338 340 343 339 339 337 333 332 329 335 335 331 330 331 323 318 317 311 309 310 309 305 305 304 303 304 305 305 304
323 327 326 326 326 327 328 330 332 331 332 332 334 339 340 337 337 337 338 338 341 342 336 335 335 336 334 332 330 331 330 329 330 331 323 320 318 312 310 311 310 307 306 305 303 303 304 304 305
325 326 326 326 326 326 327 332 332 330 330 331 331 339 342 340 340 338 337 337 337 335 334 331 332 335 335 331 331 331 329 328 329 331 323 321 319 313 312 312 311 309 308 307 306 304 303 304 305
325 329 324 328 325 328 328 331 330 330 330 329 329 336 339 340 340 339 339 338 337 336 337 339 335 334 333 331 333 335 336 333 332 329 323 324 319 313 313 313 312 309 309 308 308 307 305 306 306
326 324 327 326 328 326 327 331 326 331 331 330 330 333 334 334 337 339 340 341 340 340 339 340 338 336 333 332 335 336 336 334 331 327 324 325 320 317 314 314 313 311 309 309 309 308 306 307 306
324 326 326 327 328 326 325 324 328 330 329 329 329 332 334 330 330 334 334 334 334 335 336 336 337 337 337 337 337 336 334 333 331 326 326 326 321 320 315 314 314 312 311 308 309 309 309 307 307
323 325 325 324 324 328 328 327 323 324 327 326 328 330 331 330 329 329 328 330 330 330 332 333 336 336 335 336 336 336 335 332 328 327 325 324 321 320 315 315 314 313 312 308 306 308 309 309 308
Wind_Speed
4 1 2 3 2 2 2 2 1 3 3 3 6 4 3 2 2 3 5 19 21 20 18 17 16 13 11 9 7 7 8 9 11 11 10 8 7 5 4 3 3 3 3 2 2 3 3 4 4
6 4 2 1 1 4 3 1 3 5 1 4 11 4 1 1 2 1 12 18 20 19 19 18 15 12 10 8 9 9 9 10 10 8 7 5 4 3 3 3 3 4 4 5 5 5 5 5 5
8 3 0 2 2 3 3 3 3 3 7 6 6 1 0 0 3 9 14 17 23 19 18 16 14 12 9 9 9 10 11 10 8 6 4 3 3 4 5 5 5 6 7 8 8 8 8 7 7
6 3 4 1 2 2 3 3 4 11 6 6 4 4 3 1 4 15 16 18 20 19 18 16 14 11 9 10 10 11 10 8 6 4 4 4 5 5 6 6 8 8 8 8 9 10 10 10 9
6 2 2 2 2 2 6 7 11 11 6 8 8 5 4 7 9 13 14 17 19 19 18 16 13 11 10 10 11 12 10 7 5 5 6 5 4 5 6 7 9 10 10 11 11 11 10 10 8
3 1 1 1 1 4 4 6 9 12 8 9 6 9 6 8 11 16 15 18 18 17 17 16 14 11 11 10 12 10 8 6 5 5 4 2 3 4 6 9 9 9 10 11 11 10 8 8 8
1 2 3 2 2 3 4 2 5 5 8 8 8 8 4 13 13 16 16 18 18 18 17 16 13 13 12 13 12 9 6 5 4 3 3 2 3 6 8 9 10 11 11 11 10 8 9 10 9
2 1 3 3 1 4 2 2 4 5 6 4 9 5 4 19 19 17 17 17 18 18 16 15 14 14 15 15 12 9 6 4 3 2 1 2 4 7 8 9 11 11 11 10 9 10 11 11 10
3 2 4 3 4 4 3 3 4 3 4 5 6 2 3 21 23 21 20 20 21 20 19 17 16 16 16 15 13 10 7 3 1 1 2 3 6 7 8 9 11 12 10 8 9 10 12 12 12
2 2 5 2 1 1 6 7 6 4 6 7 7 9 7 23 26 24 22 21 22 22 20 18 17 18 18 17 13 9 6 3 2 0 2 4 6 7 8 10 12 11 8 8 9 12 13 14 13
3 3 3 5 8 8 9 10 6 7 10 14 15 15 18 27 26 24 22 19 20 22 22 21 20 20 20 17 13 11 7 4 2 1 2 4 6 7 8 10 10 9 7 7 10 11 14 16 15
3 7 5 7 6 5 7 5 6 12 11 5 9 16 22 27 28 27 25 22 20 24 24 23 23 22 21 17 15 12 9 5 2 1 1 4 6 7 7 9 10 7 6 6 8 10 13 15 17
4 4 6 9 9 11 10 15 10 17 14 10 10 14 22 23 24 25 22 20 18 22 24 24 24 23 21 18 16 14 11 7 3 2 3 4 5 6 7 9 8 5 4 3 5 8 11 12 14
4 7 11 8 4 7 7 3 5 7 10 12 11 14 20 25 24 24 26 24 20 20 23 24 24 23 22 20 17 15 12 9 4 3 3 3 4 6 7 8 6 3 2 1 2 4 7 8 10
2 6 7 4 1 3 7 3 10 11 8 13 15 15 19 24 25 28 27 26 21 20 23 25 25 24 24 22 19 16 14 11 7 4 3 4 4 6 7 7 5 3 1 1 2 1 3 5 6
2 1 2 6 7 3 3 6 5 18 8 12 15 16 20 22 22 22 22 23 22 22 22 23 26 26 26 24 20 18 15 13 9 5 3 4 6 6 6 6 5 3 1 2 3 2 0 0 3
2 1 3 3 11 1 3 8 17 15 7 10 10 10 10 6 12 18 22 25 24 24 23 24 27 28 27 25 22 20 19 13 10 5 4 5 6 6 6 6 5 3 0 3 4 4 3 4 4
2 2 3 3 4 14 5 9 10 7 5 6 7 11 5 3 8 15 23 25 26 26 26 27 28 31 31 27 26 22 20 14 11 6 6 5 5 5 6 6 3 2 1 3 5 4 4 4 8
2 1 4 3 2 6 7 11 13 6 6 8 11 13 10 5 11 15 16 23 25 28 28 29 32 29 29 29 28 22 21 16 11 8 6 5 5 5 7 5 3 3 1 3 4 4 3 3 8
3 3 1 3 11 4 12 15 11 16 13 10 15 18 13 12 20 23 19 19 26 28 30 28 30 28 27 24 23 21 21 13 11 11 8 5 5 6 6 3 2 2 1 3 4 4 3 5 8
3 3 1 1 4 3 2 9 10 5 8 12 20 18 16 11 16 16 19 18 20 23 23 25 24 12 10 27 30 21 19 18 14 15 12 7 5 6 4 2 2 1 1 2 3 3 2 1 6
2 6 3 4 4 2 4 3 3 8 7 15 21 25 23 15 1 7 10 14 19 21 21 20 17 16 8 17 32 33 27 19 25 21 14 9 6 5 2 2 1 1 1 1 3 4 4 4 5
1 2 2 4 2 2 6 0 3 3 6 12 17 22 19 14 6 5 9 12 15 18 19 16 16 24 13 7 16 24 21 19 20 17 16 11 7 5 2 2 1 1 2 2 4 6 6 5 5
6 2 3 3 0 2 3 4 2 3 4 8 14 17 13 9 5 1 4 7 10 9 11 11 15 17 12 13 14 20 18 17 22 19 17 14 9 6 4 4 2 2 2 3 5 5 5 5 3
2 1 2 1 0 2 1 3 2 3 4 5 9 12 10 5 2 1 3 6 8 13 9 12 17 16 14 14 16 17 18 21 19 18 17 13 10 6 5 5 3 3 3 3 4 5 5 4 3
4 2 2 3 2 2 1 2 3 4 6 6 6 5 6 2 2 2 5 9 12 14 11 10 15 14 18 16 15 20 17 18 20 20 18 14 11 7 7 7 6 6 5 4 4 5 5 4 4
2 1 2 3 1 3 1 2 6 4 6 7 4 4 4 3 2 2 3 9 10 13 17 15 11 12 16 13 10 13 19 23 23 21 18 14 13 11 10 10 9 7 8 7 6 5 7 6 6
3 4 2 1 2 3 2 3 3 3 8 6 5 2 4 5 5 3 2 1 5 6 5 8 11 15 10 10 13 11 13 18 22 20 19 18 15 15 13 12 10 9 9 10 9 8 8 9 8
2 1 4 1 2 4 5 3 2 5 4 7 5 3 3 5 7 6 6 7 7 8 8 7 8 9 9 10 10 9 9 13 17 19 18 19 19 19 17 14 13 11 10 12 13 12 11 11 10
2 3 3 3 3 0 2 4 1 5 4 5 5 4 1 2 6 8 8 8 9 9 9 10 10 10 11 10 10 8 13 15 18 19 19 21 22 21 19 17 15 14 13 12 13 14 15 15 13
Wind_Direction
185 151 69 23 253 346 45 36 286 233 226 170 146 193 199 109 251 315 190 162 165 171 163 159 153 148 142 140 140 136 130 125 123 121 113 110 95 85 82 70 39 34 13 352 344 323 321 319 316
176 149 52 56 309 82 64 267 247 222 272 141 157 131 176 112 201 248 145 157 165 170 163 159 155 150 148 149 147 143 134 132 133 125 107 99 93 81 67 50 41 22 6 360 351 342 326 316 302
165 145 127 63 71 55 352 214 266 194 150 148 157 110 143 195 223 164 157 165 172 173 164 161 157 157 152 153 149 145 146 142 125 118 106 92 78 68 56 41 26 10 1 356 345 334 326 314 304
155 124 66 270 5 228 261 301 213 151 152 174 168 142 115 239 169 156 157 159 166 169 166 164 162 158 156 156 152 152 144 131 127 112 98 92 87 66 44 22 7 356 353 345 334 329 329 326 326
146 121 145 81 308 274 247 275 184 185 191 183 177 162 134 139 154 166 156 159 167 170 169 166 164 166 160 159 156 150 142 135 126 111 108 107 84 46 15 3 359 0 357 352 344 341 338 338 333
110 82 180 73 278 271 274 261 195 206 200 167 154 150 150 169 159 158 164 168 171 176 172 170 170 165 162 162 157 154 144 136 127 125 125 113 40 15 0 2 4 2 356 353 349 351 358 5 4
95 155 126 188 344 333 347 117 205 205 208 193 156 159 184 173 173 165 168 171 175 177 174 174 172 167 167 166 161 160 150 145 143 127 120 79 16 3 1 359 359 356 354 354 2 17 21 20 18
90 29 141 224 89 68 334 278 192 203 206 159 172 187 174 183 173 172 169 174 179 178 177 179 177 174 171 169 169 170 158 161 156 126 83 27 10 2 356 352 350 355 359 9 25 22 17 9 6
122 183 172 186 206 128 325 298 188 198 217 193 208 259 236 178 172 173 171 178 183 183 183 183 183 180 177 175 179 178 171 162 121 81 2 3 357 354 349 351 354 359 5 21 25 22 20 26 33
147 213 205 316 253 294 307 259 282 238 211 218 211 216 201 180 177 178 178 184 187 185 185 187 185 186 183 184 184 181 179 161 174 270 349 348 339 344 349 353 356 4 11 19 23 29 36 42 46
158 211 210 256 242 262 285 283 251 270 247 225 213 195 185 183 182 185 190 194 192 188 190 189 187 189 190 192 189 187 185 177 188 343 344 330 331 345 348 352 357 8 17 24 27 37 40 40 50
222 235 224 275 248 234 257 284 266 238 247 229 240 227 188 188 190 191 196 197 198 194 193 191 190 193 197 195 195 195 190 192 208 332 337 335 338 338 346 350 359 15 26 26 30 38 44 47 56
220 254 210 250 252 246 261 260 267 268 248 248 244 194 193 194 201 199 198 203 202 200 196 195 194 197 200 200 200 201 201 208 234 305 340 334 334 330 343 347 359 14 33 31 33 39 49 56 62
209 263 273 278 258 236 224 269 191 280 233 225 216 201 199 204 206 200 198 206 205 206 201 200 199 202 204 204 205 203 207 216 241 301 316 335 324 324 338 348 355 13 29 77 74 39 42 67 76
280 294 298 222 233 300 189 203 227 317 283 217 215 210 209 214 206 210 203 206 205 211 211 207 208 208 210 208 211 209 213 220 233 257 294 320 323 328 339 341 351 354 341 126 143 54 46 63 84
281 258 348 63 349 49 193 251 58 343 258 242 231 222 223 220 214 212 211 214 216 223 224 219 217 216 216 215 216 219 222 225 237 244 291 314 320 324 339 344 339 335 298 173 171 185 151 83 127
24 65 348 72 42 313 357 304 345 340 252 252 255 244 232 223 205 213 220 222 226 230 235 235 230 226 222 221 222 224 228 228 245 257 276 308 316 320 334 332 339 342 315 166 163 206 240 258 216
55 27 299 288 48 52 44 7 356 12 46 8 318 283 258 218 216 232 231 233 238 243 245 243 238 232 230 224 230 228 229 226 234 235 270 295 304 313 328 329 344 22 59 164 163 174 228 243 211
126 265 302 355 97 59 55 52 33 34 43 359 323 299 283 258 259 261 248 238 241 245 246 246 244 239 238 232 232 234 237 232 247 244 257 283 297 319 335 323 348 10 112 184 189 183 205 252 217
184 260 141 78 115 66 69 57 41 41 42 7 339 324 308 260 254 249 248 240 235 242 242 240 239 235 231 233 257 251 231 248 258 262 257 263 293 322 315 328 336 352 99 154 177 176 228 268 216
186 201 203 115 132 88 255 64 34 30 32 27 23 3 346 297 248 232 230 230 229 229 231 233 232 232 325 327 282 250 237 222 250 268 254 258 271 301 308 329 343 25 118 169 196 179 190 227 208
142 210 214 167 197 351 341 111 52 354 19 39 20 15 12 4 261 193 194 199 211 225 231 232 236 223 269 286 267 259 262 246 236 259 246 244 254 281 310 304 334 65 78 156 200 165 142 109 118
37 130 353 27 64 187 21 232 121 340 19 16 15 15 21 37 85 150 188 228 228 228 236 244 246 212 293 226 248 255 243 238 244 234 232 228 241 254 252 244 263 95 100 138 143 141 140 131 139
143 110 76 78 21 150 6 313 148 355 358 343 6 9 23 46 69 127 206 230 241 221 224 232 231 216 250 252 264 238 239 244 224 229 222 225 226 234 237 242 221 150 138 141 139 138 138 135 132
158 168 310 246 108 49 337 268 51 241 283 313 354 4 22 42 65 23 185 190 193 200 222 228 231 248 230 282 262 245 245 228 234 232 225 229 228 231 230 232 214 201 173 160 149 164 163 155 144
38 354 309 299 283 24 151 246 92 247 281 307 25 39 52 48 99 192 186 202 206 203 291 285 267 258 261 276 265 258 242 233 241 228 220 231 232 219 230 231 215 207 207 190 165 169 172 157 147
118 98 77 107 101 256 60 242 253 236 264 295 32 101 84 88 122 243 272 228 244 247 285 295 280 279 277 264 281 272 264 251 238 223 215 231 232 228 228 233 222 212 219 214 200 188 184 185 169
26 115 202 178 246 283 183 259 257 202 227 254 281 151 110 88 87 91 63 297 305 312 311 307 298 301 297 260 283 275 278 251 223 217 219 229 232 232 231 238 232 226 229 225 216 211 205 204 191
140 162 45 20 286 277 278 249 204 272 275 249 248 281 36 65 70 75 55 44 21 354 335 321 306 312 301 290 290 275 262 228 224 227 231 235 235 235 236 237 241 236 238 237 228 226 215 210 207
242 143 160 254 244 70 332 267 237 272 243 263 275 260 289 28 52 57 56 41 19 353 328 309 299 304 298 289 282 276 257 236 231 229 229 228 234 233 238 233 239 242 240 240 231 231 226 220 220